Kindersley Airport
CYKY : now visible

Airfield :











YOU CAN JOIN US ON...

 
LOGIN :

Register | Disclaimer

   EN    FR    IT 

 









Legend :    VFR   Marginal VFR   IFR   Intensive IFR   Very Intensive IFR
Visi :
Ceiling :
>= 8 km
>= 3000ft
5 to 8 km
1000 to 3000 ft
1500m to 5 km
500 to 1000 ft
800 to 1500m
200 to 500 ft
< 800m
< 200 ft
Symbols :   Thunderstorms  Fog  Heavy snow  Heavy precipitations  Wind > 20 kt






- Airport Elevation : 2277 ft
- IATA code : YKY


CYKY - Kindersley

CURRENT METAR :
  • 112000Z 11009KT 15SM FEW100 BKN140 BKN240 20/05 A2987 RMK AC1AC7CI1 AC TR CI TR SLP115 DENSITY ALT 3500FT

EXPIRED METARs :
  • 111900Z 09008KT 010V110 15SM FEW100 BKN140 BKN240 21/07 A2988 RMK AC1AC7CI1 AC TR CI TR SLP118 DENSITY ALT 3500FT
  • 111800Z 07007KT 050V120 15SM FEW100 BKN140 BKN240 19/08 A2988 RMK AC1AC7CI1 AC TR CI TR SLP121 DENSITY ALT 3300FT

TAF N/A
CZWG FIR / North America



MET'MAP, your aeronautical weather chart ! - Copyright ORBIFLY December 2007 - Disclaimer

ORBIFLY MET'MAP TEAM :

Programming & Development : Alexandra Zaïnal
Concept & original design : Baudouin d'Aumeries
Assistance for programming : Marc-Olivier Méhu
Technical & hardware support : Manuel Goepfert

Contact : metmap@orbifly.com




SOURCES & CREDITS :

   NOAA       Earth
Advisory